Radiation Dose at Monitoring Post of Fukushima Daini Nuclear Power Station
Date,Time,MP-1(microSv/h),MP-2(microSv/h),MP-3(microSv/h),MP-4(microSv/h),MP-5(microSv/h),MP-6(microSv/h),MP-7(microSv/h),Wind Direction,Wind Velocity(m/s),Rain
2021/05/16,00:00,0.174,0.157,0.256,0.245,0.239,0.136,0.083,south,7.9,No
2021/05/16,00:10,0.173,0.158,0.255,0.247,0.238,0.136,0.084,south,7.6,No
2021/05/16,00:20,0.174,0.158,0.257,0.246,0.238,0.135,0.084,south,7.2,No
2021/05/16,00:30,0.172,0.159,0.256,0.248,0.238,0.136,0.084,south,7.1,No
2021/05/16,00:40,0.175,0.158,0.256,0.246,0.239,0.136,0.084,south,8.1,No
2021/05/16,00:50,0.173,0.159,0.256,0.247,0.238,0.136,0.084,south,9.8,No
2021/05/16,01:00,0.176,0.158,0.258,0.245,0.238,0.135,0.083,south-southeast,7.7,No
2021/05/16,01:10,0.172,0.159,0.256,0.246,0.236,0.136,0.083,south,6.3,No
2021/05/16,01:20,0.175,0.159,0.256,0.245,0.239,0.135,0.084,south,8.2,No
2021/05/16,01:30,0.174,0.157,0.257,0.248,0.237,0.136,0.083,south,6.9,No
2021/05/16,01:40,0.174,0.158,0.256,0.246,0.239,0.135,0.084,south,8.4,No
2021/05/16,01:50,0.174,0.158,0.256,0.247,0.237,0.136,0.084,south,8.7,No
2021/05/16,02:00,0.174,0.158,0.257,0.245,0.239,0.136,0.083,south,8.5,No
2021/05/16,02:10,0.173,0.158,0.256,0.248,0.237,0.135,0.083,south,7.6,No
2021/05/16,02:20,0.174,0.158,0.255,0.244,0.239,0.136,0.083,south-southwest,7.2,No
2021/05/16,02:30,0.173,0.158,0.258,0.247,0.238,0.135,0.083,south,7.4,No
2021/05/16,02:40,0.174,0.158,0.256,0.245,0.239,0.136,0.083,south,8.1,No
2021/05/16,02:50,0.174,0.158,0.257,0.248,0.238,0.136,0.083,south,9.3,No
2021/05/16,03:00,0.175,0.158,0.255,0.246,0.240,0.135,0.084,south,8.3,No
2021/05/16,03:10,0.173,0.158,0.257,0.246,0.238,0.135,0.083,south,7.9,No
2021/05/16,03:20,0.173,0.159,0.255,0.245,0.240,0.135,0.083,south-southwest,8.5,No
2021/05/16,03:30,0.175,0.157,0.256,0.246,0.238,0.135,0.084,south-southwest,8.5,No
2021/05/16,03:40,0.174,0.159,0.256,0.246,0.240,0.137,0.084,south-southwest,9.2,No
2021/05/16,03:50,0.173,0.158,0.258,0.246,0.237,0.136,0.083,south,6.9,No
2021/05/16,04:00,0.174,0.157,0.256,0.246,0.238,0.135,0.084,south,8.7,No
2021/05/16,04:10,0.173,0.159,0.257,0.247,0.237,0.136,0.084,south,6.6,No
2021/05/16,04:20,0.175,0.158,0.255,0.245,0.239,0.137,0.084,south,6.2,No
2021/05/16,04:30,0.174,0.159,0.256,0.247,0.237,0.136,0.084,south,7.4,No
2021/05/16,04:40,0.175,0.156,0.257,0.246,0.238,0.136,0.083,south,7.3,No
2021/05/16,04:50,0.174,0.160,0.256,0.247,0.238,0.136,0.082,south,7.3,No
2021/05/16,05:00,0.174,0.158,0.257,0.245,0.239,0.136,0.084,south,6.8,No
2021/05/16,05:10,0.174,0.158,0.256,0.245,0.236,0.135,0.083,south,6.5,No
2021/05/16,05:20,0.174,0.158,0.257,0.245,0.239,0.135,0.084,south,6.0,No
2021/05/16,05:30,0.174,0.158,0.256,0.247,0.237,0.136,0.082,south,6.6,No
2021/05/16,05:40,0.174,0.158,0.256,0.245,0.238,0.135,0.084,south,6.4,No
2021/05/16,05:50,0.174,0.158,0.255,0.246,0.238,0.135,0.083,south,6.4,No
2021/05/16,06:00,0.175,0.157,0.257,0.244,0.236,0.135,0.084,south,7.0,No
2021/05/16,06:10,0.174,0.157,0.255,0.247,0.238,0.136,0.083,south,7.7,No
2021/05/16,06:20,0.173,0.159,0.257,0.245,0.238,0.136,0.083,south,8.2,No
2021/05/16,06:30,0.173,0.157,0.256,0.247,0.239,0.136,0.083,south,7.6,No
2021/05/16,06:40,0.173,0.157,0.257,0.244,0.238,0.135,0.083,south,9.2,No
2021/05/16,06:50,0.175,0.157,0.256,0.245,0.238,0.135,0.083,south,6.6,No
2021/05/16,07:00,0.173,0.158,0.256,0.245,0.239,0.136,0.083,south,8.4,No
2021/05/16,07:10,0.174,0.157,0.258,0.242,0.236,0.135,0.082,south,7.4,No
2021/05/16,07:20,0.174,0.158,0.254,0.246,0.237,0.137,0.083,south,7.2,No
2021/05/16,07:30,0.173,0.157,0.253,0.244,0.238,0.136,0.082,south,8.7,No
2021/05/16,07:40,0.172,0.157,0.258,0.244,0.235,0.134,0.084,south,7.9,No
2021/05/16,07:50,0.174,0.157,0.256,0.248,0.240,0.136,0.083,south,7.8,No
2021/05/16,08:00,0.174,0.159,0.254,0.245,0.237,0.136,0.082,south,7.6,No
2021/05/16,08:10,0.172,0.158,0.254,0.245,0.236,0.134,0.083,south,10.4,No
2021/05/16,08:20,0.174,0.157,0.253,0.243,0.236,0.136,0.083,south,9.6,No
2021/05/16,08:30,0.174,0.157,0.253,0.247,0.240,0.136,0.084,northwest,10.6,No
2021/05/16,08:40,0.174,0.156,0.253,0.245,0.236,0.135,0.084,south,10.8,No
2021/05/16,08:50,0.172,0.158,0.255,0.244,0.236,0.135,0.083,south,9.5,No
2021/05/16,09:00,0.173,0.159,0.257,0.242,0.236,0.136,0.083,south,10.0,No
2021/05/16,09:10,0.174,0.158,0.258,0.246,0.239,0.135,0.084,south,10.4,No
2021/05/16,09:20,0.174,0.157,0.257,0.247,0.238,0.136,0.084,south,12.4,No
2021/05/16,09:30,0.173,0.157,0.255,0.246,0.236,0.135,0.083,south,12.8,No
2021/05/16,09:40,0.172,0.156,0.255,0.245,0.235,0.136,0.083,south-southeast,14.0,No
2021/05/16,09:50,0.172,0.157,0.256,0.246,0.240,0.136,0.083,south,12.5,No
2021/05/16,10:00,0.175,0.158,0.259,0.247,0.238,0.135,0.084,south-southeast,11.7,No
2021/05/16,10:10,0.174,0.158,0.256,0.244,0.238,0.136,0.083,south-southeast,11.0,No
2021/05/16,10:20,0.173,0.158,0.257,0.248,0.240,0.135,0.084,south-southeast,10.5,No
2021/05/16,10:30,0.172,0.160,0.261,0.246,0.238,0.136,0.083,south-southeast,12.0,No
2021/05/16,10:40,0.172,0.159,0.257,0.245,0.235,0.135,0.083,south-southeast,12.5,No
2021/05/16,10:50,0.174,0.155,0.255,0.245,0.238,0.136,0.083,south-southeast,12.3,No
2021/05/16,11:00,0.174,0.158,0.254,0.248,0.239,0.136,0.084,south-southeast,11.6,No
2021/05/16,11:10,0.173,0.158,0.256,0.247,0.237,0.135,0.083,south,10.6,No
2021/05/16,11:20,0.172,0.158,0.257,0.244,0.236,0.136,0.083,south,12.0,No
2021/05/16,11:30,0.174,0.157,0.256,0.246,0.238,0.135,0.083,south-southeast,8.9,No
2021/05/16,11:40,0.176,0.158,0.255,0.248,0.238,0.137,0.083,south,9.5,No
2021/05/16,11:50,0.174,0.158,0.254,0.246,0.237,0.136,0.083,south,13.1,No
2021/05/16,12:00,0.173,0.157,0.256,0.244,0.236,0.136,0.084,south,11.6,No
2021/05/16,12:10,0.173,0.156,0.257,0.245,0.236,0.137,0.083,south,10.2,No
2021/05/16,12:20,0.173,0.158,0.257,0.247,0.239,0.136,0.083,south-southeast,11.7,No
2021/05/16,12:30,0.175,0.159,0.255,0.246,0.239,0.135,0.083,south,12.8,No
2021/05/16,12:40,0.174,0.157,0.255,0.245,0.238,0.136,0.082,south-southeast,12.3,No
2021/05/16,12:50,0.172,0.158,0.259,0.248,0.238,0.136,0.083,south-southeast,10.3,No
2021/05/16,13:00,0.175,0.158,0.257,0.248,0.238,0.136,0.084,south,12.5,No
2021/05/16,13:10,0.175,0.158,0.255,0.245,0.238,0.136,0.083,south-southeast,9.6,No
2021/05/16,13:20,0.174,0.157,0.254,0.245,0.236,0.135,0.083,south,9.0,No
2021/05/16,13:30,0.173,0.158,0.257,0.248,0.237,0.137,0.083,south,8.4,No
2021/05/16,13:40,0.174,0.158,0.258,0.248,0.240,0.136,0.084,south,9.2,No
2021/05/16,13:50,0.175,0.158,0.257,0.245,0.238,0.136,0.084,south,10.3,No
2021/05/16,14:00,0.174,0.157,0.255,0.246,0.237,0.137,0.083,south,10.9,No
2021/05/16,14:10,0.172,0.159,0.255,0.248,0.236,0.135,0.084,south,11.8,No
2021/05/16,14:20,0.174,0.159,0.259,0.246,0.239,0.136,0.084,south,10.1,Yes
2021/05/16,14:30,0.176,0.158,0.258,0.246,0.239,0.137,0.083,south,10.3,Yes
2021/05/16,14:40,0.176,0.160,0.256,0.249,0.238,0.137,0.085,south,8.6,Yes
2021/05/16,14:50,0.176,0.161,0.260,0.248,0.240,0.137,0.086,south-southwest,8.8,Yes
2021/05/16,15:00,0.177,0.160,0.260,0.250,0.241,0.139,0.086,south,9.2,Yes
2021/05/16,15:10,0.178,0.163,0.261,0.252,0.241,0.139,0.088,south,11.8,Yes
2021/05/16,15:20,0.179,0.163,0.262,0.250,0.243,0.140,0.087,south,10.7,Yes
2021/05/16,15:30,0.177,0.163,0.259,0.252,0.242,0.140,0.088,south,8.7,Yes
2021/05/16,15:40,0.177,0.162,0.261,0.251,0.241,0.139,0.087,south,10.2,No
2021/05/16,15:50,0.177,0.161,0.259,0.250,0.243,0.139,0.086,south,8.1,No
2021/05/16,16:00,0.176,0.161,0.258,0.251,0.239,0.138,0.086,south,9.7,Yes
2021/05/16,16:10,0.177,0.160,0.260,0.247,0.241,0.139,0.086,south,10.4,Yes
2021/05/16,16:20,0.177,0.160,0.257,0.251,0.242,0.138,0.086,south,9.5,No
2021/05/16,16:30,0.175,0.160,0.260,0.248,0.240,0.137,0.086,south,10.0,Yes
2021/05/16,16:40,0.177,0.160,0.259,0.248,0.241,0.138,0.086,south,9.2,Yes
2021/05/16,16:50,0.177,0.161,0.261,0.250,0.239,0.139,0.087,south,9.4,Yes
2021/05/16,17:00,0.179,0.162,0.262,0.250,0.245,0.141,0.088,south,8.4,Yes
2021/05/16,17:10,0.178,0.162,0.261,0.251,0.242,0.140,0.088,south,8.5,No
2021/05/16,17:20,0.177,0.161,0.261,0.249,0.242,0.140,0.087,south,8.6,No
2021/05/16,17:30,0.177,0.162,0.259,0.250,0.241,0.139,0.086,south,9.7,Yes
2021/05/16,17:40,0.176,0.161,0.259,0.248,0.241,0.138,0.086,south,10.1,No
2021/05/16,17:50,0.176,0.161,0.258,0.249,0.241,0.139,0.086,south,10.1,No
2021/05/16,18:00,0.174,0.160,0.259,0.247,0.238,0.138,0.085,south-southeast,10.1,No
2021/05/16,18:10,0.176,0.158,0.256,0.248,0.240,0.138,0.085,south,10.3,No
2021/05/16,18:20,0.175,0.159,0.257,0.246,0.238,0.137,0.085,south,10.3,No
2021/05/16,18:30,0.175,0.158,0.257,0.248,0.240,0.137,0.085,south,9.3,No
2021/05/16,18:40,0.175,0.158,0.257,0.247,0.238,0.137,0.084,south,10.3,No
2021/05/16,18:50,0.174,0.158,0.256,0.247,0.240,0.135,0.084,south,10.7,No
2021/05/16,19:00,0.176,0.158,0.258,0.247,0.237,0.136,0.083,south,11.1,No
2021/05/16,19:10,0.174,0.158,0.256,0.246,0.238,0.136,0.084,south,7.6,No
2021/05/16,19:20,0.175,0.159,0.257,0.248,0.239,0.136,0.083,south-southeast,7.0,No
2021/05/16,19:30,0.174,0.158,0.256,0.245,0.239,0.136,0.084,south,9.8,No
2021/05/16,19:40,0.176,0.159,0.257,0.247,0.240,0.135,0.084,south-southwest,10.9,No
2021/05/16,19:50,0.173,0.157,0.255,0.244,0.236,0.135,0.084,south,11.0,No
2021/05/16,20:00,0.175,0.158,0.256,0.247,0.239,0.135,0.084,south,10.9,No
2021/05/16,20:10,0.174,0.159,0.257,0.245,0.237,0.136,0.084,south,10.4,No
2021/05/16,20:20,0.174,0.158,0.256,0.248,0.239,0.135,0.083,south-southeast,10.4,No
2021/05/16,20:30,0.174,0.157,0.258,0.246,0.237,0.137,0.083,south-southeast,9.5,No
2021/05/16,20:40,0.175,0.158,0.256,0.246,0.240,0.136,0.084,south-southeast,8.8,No
2021/05/16,20:50,0.175,0.158,0.256,0.246,0.237,0.136,0.084,south-southeast,10.3,No
2021/05/16,21:00,0.174,0.158,0.254,0.246,0.238,0.136,0.084,south-southeast,9.0,No
2021/05/16,21:10,0.175,0.158,0.257,0.247,0.240,0.136,0.084,south-southeast,8.9,No
2021/05/16,21:20,0.173,0.159,0.255,0.246,0.236,0.137,0.084,south-southeast,9.2,No
2021/05/16,21:30,0.175,0.157,0.258,0.247,0.239,0.136,0.084,south,8.6,Yes
2021/05/16,21:40,0.174,0.159,0.255,0.245,0.237,0.138,0.084,south,8.7,No
2021/05/16,21:50,0.175,0.157,0.258,0.247,0.238,0.136,0.084,south,9.8,No
2021/05/16,22:00,0.174,0.159,0.256,0.247,0.237,0.136,0.084,south,8.9,No
2021/05/16,22:10,0.174,0.158,0.257,0.248,0.239,0.136,0.083,south-southeast,7.9,No
2021/05/16,22:20,0.174,0.159,0.256,0.245,0.238,0.135,0.083,south,10.1,No
2021/05/16,22:30,0.174,0.158,0.257,0.247,0.238,0.137,0.083,south,9.3,Yes
2021/05/16,22:40,0.174,0.158,0.256,0.247,0.238,0.136,0.084,south,9.8,No
2021/05/16,22:50,0.174,0.159,0.258,0.247,0.237,0.137,0.085,south,10.4,No
2021/05/16,23:00,0.176,0.159,0.256,0.246,0.239,0.136,0.083,south,10.1,No
2021/05/16,23:10,0.174,0.158,0.256,0.246,0.237,0.136,0.085,south,9.2,No
2021/05/16,23:20,0.174,0.158,0.257,0.248,0.239,0.137,0.084,south,7.5,No
2021/05/16,23:30,0.175,0.158,0.255,0.246,0.238,0.136,0.084,south,7.6,No
2021/05/16,23:40,0.174,0.158,0.257,0.246,0.238,0.136,0.084,south,8.5,No
2021/05/16,23:50,0.175,0.159,0.256,0.247,0.239,0.136,0.084,south,9.0,Yes
